Location: *
(42.0175°N, 9.4056°E)
Time: 10:10:37
(UTC+00:00)

SJ 16-02 - Pass Details

Date: 25 August 2019
Orbit: 605 x 618 km, 75.0° (Epoch: 15 September)

Event Time Altitude Azimuth Distance (km) Brightness Sun altitude
Rises 18:37:20 0° 156° (SSE) 2,861 4.4 -6.0°
Reaches altitude 10° 18:40:13 10° 136° (SE) 1,965 3.4 -6.5°
Maximum altitude 18:43:01 17° 96° (E) 1,575 2.8 -7.0°
Drops below altitude 10° 18:45:49 10° 56° (NE) 1,980 3.6 -7.5°
Sets 18:48:44 0° 36° (NE) 2,893 4.7 -8.0°
